Voltar ao catálogo

STARLINK-30230

AtivoComunicaçõesVLEO
NORAD 57503·PAYLOAD·🇺🇸 United States

Lançado Aug 7, 2023 de Cape Canaveral Space Force Station

Loading…

Próximas Passagens (próximas 24 horas)

TLE

AtualizadoSource: CelesTrak SupGP

Época: Sep 14, 2026, 21:06 UTC

1 57503C 23113J   26257.87965278  .00025974  00000+0  94044-3 0  2571
2 57503  43.0025  27.5725 0001668 272.9718 306.7297 15.27577141    16

Acompanhe STARLINK-30230 em tempo real com AllMySat

Download on the App Store